When you browse on this site, cookies collect data to enhance your experience and personalize the content and advertising you see.
Visit our Privacy Policy to learn more. By continuing to use the site, you agree to this use of cookies and data.
  • In Germany
  • List of Countries
  • For 7 days
  • Water Temperature
  • Weather Map
  • Weather Widgets
  • user-avatar
    Login

    Hourly Weather Verhnyaya Alabashka

    Today, 17 October, Thursday

    Time Temperature Precipitation Wind Pressure Humidity
    00:00 -2°C° 0 mm 4 mps 746 mmHg 81%
    01:00 -2°C° 0 mm 4 mps 746 mmHg 82%
    02:00 -2°C° 0 mm 3 mps 747 mmHg 81%
    03:00 -2°C° 0 mm 3 mps 747 mmHg 81%
    04:00 -2°C° 0 mm 3 mps 748 mmHg 83%
    05:00 -2°C° 0 mm 3 mps 748 mmHg 82%
    06:00 -2°C° 0 mm 3 mps 748 mmHg 81%
    07:00 -3°C° 0 mm 4 mps 748 mmHg 80%
    08:00 -1°C° 0 mm 3 mps 749 mmHg 76%
    09:00 0°C° 0 mm 3 mps 749 mmHg 72%
    10:00 0°C° 0 mm 3 mps 749 mmHg 68%
    11:00 0°C° 0 mm 3 mps 749 mmHg 67%
    12:00 +1°C° 0 mm 3 mps 749 mmHg 66%
    13:00 +1°C° 0 mm 3 mps 749 mmHg 65%
    14:00 +1°C° 0 mm 3 mps 749 mmHg 66%
    15:00 +1°C° 0 mm 2 mps 749 mmHg 68%
    16:00 +1°C° 0 mm 2 mps 749 mmHg 70%
    17:00 +1°C° 0 mm 2 mps 749 mmHg 72%
    18:00 +1°C° 0 mm 1 mps 748 mmHg 75%
    19:00 +1°C° 0 mm 1 mps 748 mmHg 78%
    20:00 +1°C° 0.1 mm 1 mps 748 mmHg 84%
    21:00 +1°C° 0.1 mm 1 mps 748 mmHg 89%
    22:00 +1°C° 0.1 mm 1 mps 747 mmHg 95%
    23:00 -1°C° 0.2 mm 2 mps 747 mmHg 95%

    Tomorrow, 18 October, Friday

    Time Temperature Precipitation Wind Pressure Humidity
    00:00 -1°C° 0.2 mm 2 mps 746 mmHg 96%
    01:00 -1°C° 0.2 mm 2 mps 745 mmHg 97%
    02:00 -1°C° 0.3 mm 2 mps 745 mmHg 97%
    03:00 -1°C° 0.3 mm 2 mps 745 mmHg 97%
    04:00 -1°C° 0.3 mm 2 mps 744 mmHg 97%
    05:00 -1°C° 0.2 mm 2 mps 744 mmHg 97%
    06:00 -1°C° 0.2 mm 2 mps 743 mmHg 97%
    07:00 -2°C° 0.2 mm 2 mps 743 mmHg 97%
    08:00 -1°C° 0.3 mm 3 mps 743 mmHg 96%
    09:00 -1°C° 0.3 mm 3 mps 743 mmHg 96%
    10:00 0°C° 0.3 mm 3 mps 743 mmHg 95%
    11:00 0°C° 0.2 mm 3 mps 743 mmHg 95%
    12:00 0°C° 0.2 mm 3 mps 743 mmHg 95%
    13:00 -1°C° 0.2 mm 4 mps 743 mmHg 95%
    14:00 -2°C° 0.3 mm 4 mps 743 mmHg 96%
    15:00 -2°C° 0.3 mm 4 mps 744 mmHg 96%
    16:00 -2°C° 0.3 mm 4 mps 744 mmHg 96%
    17:00 -2°C° 0.1 mm 4 mps 744 mmHg 95%
    18:00 -3°C° 0.1 mm 4 mps 745 mmHg 94%
    19:00 -3°C° 0.1 mm 4 mps 745 mmHg 93%
    20:00 -4°C° 0 mm 4 mps 746 mmHg 91%
    21:00 -4°C° 0 mm 4 mps 747 mmHg 90%
    22:00 -4°C° 0 mm 4 mps 747 mmHg 89%
    23:00 -5°C° 0 mm 3 mps 748 mmHg 89%

    Day after tomorrow, 19 October, Saturday

    Time Temperature Precipitation Wind Pressure Humidity
    00:00 -6°C° 0 mm 3 mps 748 mmHg 89%
    01:00 -7°C° 0 mm 3 mps 748 mmHg 89%
    02:00 -6°C° 0 mm 2 mps 749 mmHg 89%
    03:00 -6°C° 0 mm 2 mps 750 mmHg 89%
    04:00 -6°C° 0 mm 2 mps 750 mmHg 89%
    05:00 -7°C° 0 mm 2 mps 751 mmHg 89%
    06:00 -7°C° 0 mm 2 mps 751 mmHg 89%
    07:00 -7°C° 0 mm 2 mps 751 mmHg 89%
    08:00 -6°C° 0 mm 2 mps 752 mmHg 82%
    09:00 -4°C° 0 mm 2 mps 752 mmHg 75%
    10:00 -4°C° 0 mm 3 mps 753 mmHg 69%
    11:00 -3°C° 0 mm 2 mps 753 mmHg 66%
    12:00 -2°C° 0 mm 2 mps 753 mmHg 64%
    13:00 -2°C° 0 mm 2 mps 753 mmHg 62%
    14:00 -2°C° 0 mm 2 mps 753 mmHg 65%
    15:00 0°C° 0 mm 1 mps 753 mmHg 68%
    16:00 -1°C° 0 mm 1 mps 753 mmHg 72%
    17:00 -2°C° 0 mm 1 mps 754 mmHg 75%
    18:00 -3°C° 0 mm 1 mps 754 mmHg 79%
    19:00 -4°C° 0 mm 1 mps 754 mmHg 82%
    20:00 -4°C° 0 mm 1 mps 755 mmHg 83%
    21:00 -4°C° 0 mm 1 mps 755 mmHg 84%
    22:00 -4°C° 0 mm 1 mps 755 mmHg 85%
    23:00 -4°C° 0 mm 1 mps 755 mmHg 86%

    20 October, Sunday

    Time Temperature Precipitation Wind Pressure Humidity
    00:00 -4°C° 0 mm 1 mps 755 mmHg 87%
    01:00 -6°C° 0 mm 1 mps 755 mmHg 88%
    02:00 -6°C° 0 mm 1 mps 755 mmHg 89%
    03:00 -6°C° 0 mm 1 mps 755 mmHg 90%
    04:00 -7°C° 0 mm 2 mps 755 mmHg 91%
    05:00 -7°C° 0 mm 2 mps 755 mmHg 91%
    06:00 -7°C° 0 mm 2 mps 755 mmHg 91%
    07:00 -7°C° 0 mm 2 mps 755 mmHg 92%
    08:00 -5°C° 0 mm 2 mps 755 mmHg 84%
    09:00 -5°C° 0 mm 3 mps 755 mmHg 77%
    10:00 -2°C° 0 mm 3 mps 755 mmHg 70%
    11:00 -2°C° 0 mm 3 mps 755 mmHg 70%
    12:00 -2°C° 0 mm 4 mps 754 mmHg 69%
    13:00 -1°C° 0 mm 4 mps 754 mmHg 69%
    14:00 0°C° 0 mm 3 mps 753 mmHg 74%
    15:00 0°C° 0 mm 3 mps 753 mmHg 78%
    16:00 -1°C° 0 mm 3 mps 753 mmHg 82%
    17:00 0°C° 0 mm 3 mps 753 mmHg 84%
    18:00 0°C° 0 mm 3 mps 753 mmHg 85%
    19:00 0°C° 0 mm 3 mps 752 mmHg 87%
    20:00 0°C° 0 mm 3 mps 752 mmHg 88%
    21:00 -1°C° 0 mm 4 mps 752 mmHg 89%
    22:00 -1°C° 0 mm 4 mps 751 mmHg 90%
    23:00 0°C° 0 mm 4 mps 751 mmHg 90%

    21 October, Monday

    Time Temperature Precipitation Wind Pressure Humidity
    00:00 0°C° 0 mm 4 mps 750 mmHg 89%
    01:00 0°C° 0 mm 4 mps 750 mmHg 88%
    02:00 0°C° 0 mm 4 mps 749 mmHg 88%
    03:00 0°C° 0 mm 4 mps 749 mmHg 88%
    04:00 0°C° 0 mm 4 mps 748 mmHg 88%
    05:00 +1°C° 0.2 mm 5 mps 748 mmHg 88%
    06:00 +1°C° 0.2 mm 5 mps 747 mmHg 88%
    07:00 +1°C° 0.2 mm 5 mps 746 mmHg 89%
    08:00 +2°C° 0.2 mm 5 mps 746 mmHg 89%
    09:00 +2°C° 0.2 mm 5 mps 746 mmHg 89%
    10:00 +2°C° 0.2 mm 5 mps 745 mmHg 89%
    11:00 +3°C° 0 mm 5 mps 745 mmHg 90%
    12:00 +4°C° 0 mm 4 mps 745 mmHg 90%
    13:00 +4°C° 0 mm 4 mps 745 mmHg 91%
    14:00 +4°C° 0.3 mm 4 mps 745 mmHg 92%
    15:00 +4°C° 0.3 mm 4 mps 745 mmHg 93%
    16:00 +4°C° 0.3 mm 4 mps 744 mmHg 94%
    17:00 +4°C° 0.3 mm 4 mps 744 mmHg 95%
    18:00 +4°C° 0.3 mm 3 mps 744 mmHg 95%
    19:00 +4°C° 0.3 mm 3 mps 744 mmHg 95%
    20:00 +4°C° 0.1 mm 3 mps 744 mmHg 95%
    21:00 +4°C° 0.1 mm 3 mps 743 mmHg 95%
    22:00 +4°C° 0.1 mm 3 mps 743 mmHg 95%
    23:00 +4°C° 0.3 mm 3 mps 742 mmHg 96%

    22 October, Tuesday

    Time Temperature Precipitation Wind Pressure Humidity
    00:00 +4°C° 0.3 mm 3 mps 742 mmHg 96%
    01:00 +4°C° 0.3 mm 3 mps 741 mmHg 96%
    02:00 +5°C° 0.6 mm 4 mps 740 mmHg 95%
    03:00 +5°C° 0.6 mm 4 mps 739 mmHg 94%
    04:00 +6°C° 0.6 mm 4 mps 738 mmHg 94%
    05:00 +6°C° 1 mm 5 mps 737 mmHg 93%
    06:00 +7°C° 1 mm 5 mps 737 mmHg 92%
    07:00 +7°C° 1 mm 6 mps 736 mmHg 91%
    08:00 +8°C° 0.2 mm 6 mps 736 mmHg 89%
    09:00 +8°C° 0.2 mm 5 mps 736 mmHg 86%
    10:00 +8°C° 0.2 mm 5 mps 736 mmHg 84%
    11:00 +9°C° 0 mm 5 mps 736 mmHg 81%
    12:00 +9°C° 0 mm 5 mps 736 mmHg 79%
    13:00 +9°C° 0 mm 6 mps 737 mmHg 77%
    14:00 +8°C° 0.1 mm 5 mps 737 mmHg 79%
    15:00 +8°C° 0.1 mm 4 mps 738 mmHg 81%
    16:00 +8°C° 0.1 mm 3 mps 738 mmHg 83%
    17:00 +8°C° 0 mm 3 mps 738 mmHg 84%
    18:00 +7°C° 0 mm 3 mps 739 mmHg 85%
    19:00 +5°C° 0 mm 3 mps 739 mmHg 86%
    20:00 +4°C° 0 mm 3 mps 739 mmHg 88%
    21:00 +4°C° 0 mm 2 mps 739 mmHg 90%
    22:00 +3°C° 0 mm 2 mps 739 mmHg 92%
    23:00 +3°C° 0 mm 2 mps 739 mmHg 92%
    Show more